Location: Central Coast NSW, Australia
(33.2407°S, 151.4316°E)
Time: 18:14:36
(UTC+11:00)

Hubble Space Telescope - Pass Details

Date: 03 April 2019
Orbit: 536 x 540 km, 28.5° (Epoch: 21 October)

Event Time Altitude Azimuth Distance (km) Brightness Sun altitude
Exits shadow 06:23:51 12° 288° (WNW) 1,666 2.7 -9.9°
Maximum altitude 06:27:26 43° 358° (N) 770 1.5 -9.1°
Drops below altitude 10° 06:31:24 10° 69° (ENE) 1,798 4.8 -8.3°
Sets 06:33:44 0° 76° (ENE) 2,688 6.3 -7.8°
